Regional Weather Roundup
Issued by NWS

Home | Current Version | Previous Version | Text Only | Print | Product List | Glossary Off
Versions: 1 2 3 4 5 6 7 8 9 10 11 12 13 14 15 16 17 18 19 20 21 22 23 24 25 26 27 28 29 30 31 32 33 34 35 36 37 38 39 40 41 42 43 44 45 46 47 48 49 50

000
ASUS43 KLMK 192002
RWRKY
KENTUCKY REGIONAL WEATHER ROUNDUP
NATIONAL WEATHER SERVICE LOUISVILLE KY
300 PM EST MON FEB 19 2018

NOTE "FAIR" INDICATES FEW OR NO CLOUDS BELOW 12,000 FEET
WITH NO SIGNIFICANT WEATHER AND/OR OBSTRUCTIONS TO VISIBILITY.

KYZ001>023-026-027-061>063-070>075-192100-
WESTERN AND SOUTH CENTRAL KENTUCKY

CITY           SKY/WX    TMP DP  RH WIND       PRES   REMARKS
PADUCAH        FAIR      73  56  54 SW15G33   29.99F
HENDERSON      FAIR      73  59  61 S22G28    29.99F
OWENSBORO      FAIR      75  58  55 S23G29    30.01F
HOPKINSVILLE   FAIR      74  53  46 S20G40    30.05F
BOWLING GREEN  CLOUDY    75  58  55 S16G26    30.10F
GLASGOW        NOT AVBL
$$

KYZ024-025-028>034-038-045-046-053-192100-
NORTH CENTRAL KENTUCKY

CITY           SKY/WX    TMP DP  RH WIND       PRES   REMARKS
LOUISVILLE/SDF CLOUDY    76  56  49 SW15G25   30.04F
LOUISVILLE/LOU FAIR      75  57  53 SW20G31   30.05S
FORT KNOX      PTSUNNY   74  57  55 S16G28    30.06S
$$

KYZ035>037-039>044-047>052-055>060-089>105-192100-
NORTHEAST KENTUCKY

CITY           SKY/WX    TMP DP  RH WIND       PRES   REMARKS
LEXINGTON      PTSUNNY   74  57  55 S22G31    30.10F
COVINGTON      CLOUDY    72  59  63 SW12      30.02F
FRANKFORT      PTSUNNY   75  55  49 SW26G39   30.06F
$$

KYZ054-064>069-076>088-106>120-192100-
SOUTHEAST KENTUCKY

CITY           SKY/WX    TMP DP  RH WIND       PRES   REMARKS
JACKSON        CLOUDY    72  53  51 S13G22    30.17F
LONDON         CLOUDY    72  54  53 SW14G29   30.19S
SOMERSET       NOT AVBL
MIDDLESBORO    CLOUDY    66  55  68 NE3       30.24S
MONTICELLO     NOT AVBL
$$




USA.gov is the U.S. government's official web portal to all federal, state and local government web resources and services.